Date String (YYYY-MM-DD hh:mm:ss) UTC,Instrument flags,absolute air pressure of the measurement (hPa),sample flow rate (lpm),inlet stack bypass flow (lpm),air temperature of the measurement (°C),ambient temperature measured by the external sensor (°C),aerosol sample conditioner tube jacket temperature (°C),OPC LED temperature (°C),internal box temperature (°C),relative humidity of the measurement (%),span deviation,mass concentration of particles derived from Lorenz-Mie calculation of OPC scattering (μg/m³),mass concentration of particles derived from Lorenz-Mie calculation of OPC scattering (μg/m³),mass concentration of particles derived from Lorenz-Mie calculation of OPC scattering (μg/m³)
DateTimeUTC,F1_M11,P_M11,Q1_M11,Q2_M11,T1_M11,T2_M11,T3_M11,T4_M11,T5_M11,U1_M11,ZSPAN_M11,X0_M11,X2_M11,X1_M11
2024-01-23 00:00:00,SystemResetWarning,0825.2,5.01,000.00,026.2,025.4,000.0,034.6,027.6,13.5,0002.2,0008.89,0004.59,0004.24
2024-01-23 00:01:00,SystemResetWarning,0825.2,5.00,000.00,026.2,025.4,000.0,034.6,027.6,13.5,0000.3,0008.85,0004.57,0004.22
2024-01-23 00:02:00,SystemResetWarning,0825.2,5.00,000.00,026.2,025.4,000.0,034.6,027.5,13.5,0000.0,0008.73,0004.53,0004.20
2024-01-23 00:03:00,SystemResetWarning,0825.2,4.99,000.00,026.2,025.4,000.0,034.6,027.6,13.5,0000.0,0008.64,0004.51,0004.19
2024-01-23 00:04:00,SystemResetWarning,0825.2,5.00,000.00,026.2,025.4,000.0,034.6,027.6,13.5,0000.0,0009.04,0004.51,0004.19
2024-01-23 00:05:00,SystemResetWarning,0825.2,5.00,000.00,026.2,025.4,000.0,034.6,027.6,13.5,0000.0,0009.04,0004.48,0004.19
2024-01-23 00:06:00,SystemResetWarning,0825.3,5.00,000.00,026.2,025.4,000.0,034.6,027.6,13.5,0000.0,0009.02,0004.48,0004.18
2024-01-23 00:07:00,SystemResetWarning,0825.3,5.01,000.00,026.2,025.4,000.0,034.6,027.6,13.5,0002.0,0009.02,0004.47,0004.17
2024-01-23 00:08:00,SystemResetWarning,0825.2,5.01,000.00,026.2,025.4,000.0,034.6,027.6,13.5,0002.5,0008.91,0004.44,0004.16
2024-01-23 00:09:00,SystemResetWarning,0825.3,5.00,000.00,026.2,025.4,000.0,034.6,027.6,13.5,0003.2,0008.88,0004.44,0004.16
2024-01-23 00:10:00,SystemResetWarning,0825.3,5.00,000.00,026.2,025.4,000.0,034.6,027.6,13.5,0000.0,0008.37,0004.43,0004.14
2024-01-23 00:11:00,SystemResetWarning,0825.2,5.01,000.00,026.2,025.4,000.0,034.6,027.6,13.5,0000.0,0007.74,0004.39,0004.12
2024-01-23 00:12:00,SystemResetWarning,0825.3,5.01,000.00,026.2,025.4,000.0,034.6,027.6,13.5,0000.0,0008.11,0004.40,0004.12
2024-01-23 00:13:00,SystemResetWarning,0825.3,4.99,000.00,026.2,025.4,000.0,034.6,027.6,13.5,0000.0,0008.79,0004.40,0004.11
2024-01-23 00:14:00,SystemResetWarning,0825.3,5.00,000.00,026.2,025.4,000.0,034.6,027.6,13.5,0000.0,0008.83,0004.41,0004.10
2024-01-23 00:15:00,SystemResetWarning,0825.3,5.00,000.00,026.2,025.4,000.0,034.6,027.6,13.5,0000.0,0008.47,0004.38,0004.08
2024-01-23 00:16:00,SystemResetWarning,0825.3,4.99,000.00,026.2,025.4,000.0,034.6,027.6,13.5,0000.0,0008.81,0004.36,0004.07
2024-01-23 00:17:00,SystemResetWarning,0825.3,5.00,000.00,026.2,025.4,000.0,034.6,027.6,13.6,0000.0,0008.88,0004.35,0004.07
2024-01-23 00:18:00,SystemResetWarning,0825.4,5.00,000.00,026.2,025.4,000.0,034.6,027.6,13.6,0000.0,0008.87,0004.35,0004.06
2024-01-23 00:19:00,SystemResetWarning,0825.4,5.01,000.00,026.2,025.4,000.0,034.6,027.6,13.6,0000.0,0008.86,0004.37,0004.06
2024-01-23 00:20:00,SystemResetWarning,0825.4,5.01,000.00,026.2,025.4,000.0,034.6,027.6,13.6,0000.0,0008.90,0004.36,0004.06
2024-01-23 00:21:00,SystemResetWarning,0825.4,5.00,000.00,026.2,025.4,000.0,034.6,027.6,13.6,0000.0,0008.99,0004.36,0004.07
2024-01-23 00:22:00,SystemResetWarning,0825.4,5.00,000.00,026.2,025.4,000.0,034.6,027.6,13.6,0000.0,0008.97,0004.35,0004.07
2024-01-23 00:23:00,SystemResetWarning,0825.5,5.00,000.00,026.2,025.4,000.0,034.6,027.6,13.6,0000.0,0008.78,0004.34,0004.08
2024-01-23 00:24:00,SystemResetWarning,0825.5,5.00,000.00,026.2,025.4,000.0,034.6,027.6,13.6,0000.0,0007.99,0004.36,0004.08
2024-01-23 00:25:00,SystemResetWarning,0825.5,5.01,000.00,026.2,025.4,000.0,034.6,027.6,13.6,0000.0,0007.99,0004.35,0004.08
2024-01-23 00:26:00,SystemResetWarning,0825.5,4.99,000.00,026.2,025.4,000.0,034.6,027.6,13.6,0000.0,0008.21,0004.34,0004.09
2024-01-23 00:27:00,SystemResetWarning,0825.5,4.99,000.00,026.2,025.4,000.0,034.6,027.6,13.6,0000.0,0008.01,0004.35,0004.11
2024-01-23 00:28:00,SystemResetWarning,0825.5,5.00,000.00,026.2,025.4,000.0,034.6,027.6,13.6,0000.0,0007.76,0004.35,0004.11
2024-01-23 00:29:00,SystemResetWarning,0825.5,5.00,000.00,026.2,025.4,000.0,034.6,027.6,13.6,0000.0,0008.02,0004.38,0004.12
2024-01-23 00:30:00,SystemResetWarning,0825.5,5.00,000.00,026.2,025.4,000.0,034.6,027.6,13.6,0000.3,0008.21,0004.41,0004.13
2024-01-23 00:31:00,SystemResetWarning,0825.5,5.00,000.00,026.2,025.4,000.0,034.6,027.6,13.6,0002.3,0008.30,0004.42,0004.13
2024-01-23 00:32:00,SystemResetWarning,0825.5,5.01,000.00,026.2,025.4,000.0,034.6,027.6,13.6,0002.2,0008.25,0004.40,0004.12
2024-01-23 00:33:00,SystemResetWarning,0825.5,4.99,000.00,026.2,025.4,000.0,034.6,027.6,13.6,0001.4,0008.28,0004.42,0004.13
2024-01-23 00:34:00,SystemResetWarning,0825.5,4.99,000.00,026.2,025.4,000.0,034.6,027.6,13.6,0000.6,0008.30,0004.43,0004.15
2024-01-23 00:35:00,SystemResetWarning,0825.5,4.99,000.00,026.2,025.4,000.0,034.6,027.6,13.6,0000.1,0008.35,0004.45,0004.16
2024-01-23 00:36:00,SystemResetWarning,0825.5,5.00,000.00,026.3,025.4,000.0,034.6,027.6,13.6,0000.2,0008.41,0004.47,0004.17
2024-01-23 00:37:00,SystemResetWarning,0825.5,5.01,000.00,026.3,025.4,000.0,034.6,027.6,13.6,0000.1,0008.30,0004.49,0004.19
2024-01-23 00:38:00,SystemResetWarning,0825.5,5.01,000.00,026.3,025.4,000.0,034.6,027.7,13.6,0000.1,0008.18,0004.52,0004.20
2024-01-23 00:39:00,SystemResetWarning,0825.5,5.00,000.00,026.3,025.4,000.0,034.6,027.7,13.6,0000.0,0008.12,0004.53,0004.21
2024-01-23 00:40:00,SystemResetWarning,0825.5,5.00,000.00,026.2,025.4,000.0,034.6,027.7,13.6,0000.0,0007.88,0004.55,0004.23
2024-01-23 00:41:00,SystemResetWarning,0825.5,4.99,000.00,026.2,025.4,000.0,034.6,027.7,13.6,0000.0,0007.68,0004.54,0004.26
2024-01-23 00:42:00,SystemResetWarning,0825.5,5.00,000.00,026.2,025.4,000.0,034.6,027.6,13.6,0000.0,0007.62,0004.55,0004.28
2024-01-23 00:43:00,SystemResetWarning,0825.6,5.01,000.00,026.2,025.4,000.0,034.6,027.6,13.6,0000.0,0007.58,0004.59,0004.31
2024-01-23 00:44:00,SystemResetWarning,0825.6,5.00,000.00,026.2,025.4,000.0,034.6,027.6,13.6,0000.0,0007.52,0004.61,0004.34
2024-01-23 00:45:00,SystemResetWarning,0825.6,5.00,000.00,026.2,025.4,000.0,034.6,027.6,13.6,0000.0,0007.63,0004.63,0004.35
2024-01-23 00:46:00,SystemResetWarning,0825.6,5.00,000.00,026.2,025.4,000.0,034.6,027.6,13.6,0000.0,0008.26,0004.66,0004.37
2024-01-23 00:47:00,SystemResetWarning,0825.6,5.00,000.00,026.2,025.4,000.0,034.6,027.6,13.6,0000.0,0008.23,0004.66,0004.38
2024-01-23 00:48:00,SystemResetWarning,0825.6,5.00,000.00,026.2,025.4,000.0,034.6,027.6,13.6,0000.0,0008.24,0004.64,0004.38
2024-01-23 00:49:00,SystemResetWarning,0825.6,5.00,000.00,026.2,025.4,000.0,034.6,027.6,13.6,0000.0,0008.36,0004.63,0004.39
2024-01-23 00:50:00,SystemResetWarning,0825.6,5.00,000.00,026.2,025.4,000.0,034.6,027.6,13.6,0000.0,0008.73,0004.66,0004.40
2024-01-23 00:51:00,SystemResetWarning,0825.6,5.00,000.00,026.3,025.4,000.0,034.6,027.6,13.6,0000.0,0008.75,0004.66,0004.41
2024-01-23 00:52:00,SystemResetWarning,0825.7,5.00,000.00,026.2,025.4,000.0,034.6,027.6,13.6,0000.0,0008.80,0004.67,0004.41
2024-01-23 00:53:00,SystemResetWarning,0825.6,5.00,000.00,026.3,025.4,000.0,034.6,027.6,13.6,0000.0,0008.80,0004.68,0004.41
2024-01-23 00:54:00,SystemResetWarning,0825.7,5.00,000.00,026.2,025.4,000.0,034.6,027.6,13.6,0000.0,0008.76,0004.67,0004.42
2024-01-23 00:55:00,SystemResetWarning,0825.7,5.00,000.00,026.2,025.3,000.0,034.6,027.6,13.6,0000.0,0008.84,0004.69,0004.42
2024-01-23 00:56:00,SystemResetWarning,0825.7,4.99,000.00,026.2,025.3,000.0,034.6,027.6,13.6,0000.0,0009.15,0004.72,0004.43
2024-01-23 00:57:00,SystemResetWarning,0825.7,5.00,000.00,026.2,025.3,000.0,034.6,027.6,13.6,0000.0,0008.63,0004.72,0004.43
2024-01-23 00:58:00,SystemResetWarning,0825.7,4.99,000.00,026.2,025.3,000.0,034.6,027.6,13.7,0000.0,0008.82,0004.73,0004.45
2024-01-23 00:59:00,SystemResetWarning,0825.7,5.00,000.00,026.2,025.3,000.0,034.6,027.6,13.7,0000.0,0009.59,0004.75,0004.46
